Hurlburt Field, FL

4:52 PM CST on January 21, 2017 (GMT -0600)
Hurlburt Field

Weather History for KHRT - October, 2010

Change the Weather History Date:

Wednesday, October 20, 2010

  Actual Average Record
Temperature  
Mean Temperature 70 °F -  
Max Temperature 83 °F 75 °F 86 °F (1998)
Min Temperature 57 °F 57 °F -5 °F (2007)
Cooling Degree Days 5    
Growing Degree Days 20 (Base 50)    
Moisture  
Dew Point 61 °F    
Average Humidity 69    
Maximum Humidity 96    
Minimum Humidity 45    
Precipitation  
Precipitation 0.00 in - - ()
Sea Level Pressure  
Sea Level Pressure 29.96 in    
Wind  
Wind Speed 6 mph (NW)    
Max Wind Speed 14 mph    
Max Gust Speed -    
Visibility 10 miles    
Events Rain    
Averages and records for this station are not official NWS values.
T = Trace of Precipitation, MM = Missing Value Source: NWS Daily Summary

Daily Weather History Graph

Daily Weather History Graph

Search for Another Location

Airport or City:

Trip Planner

Search our weather history database for the weather conditions in past years. The results will help you decide how hot, cold, wet, or windy it might be!

Date:

Astronomy

Oct. 20, 2010 Rise Set
Actual Time 6:52 AM CDT 6:10 PM CDT
Civil Twilight 6:27 AM CDT 6:34 PM CDT
Nautical Twilight 5:59 AM CDT 7:02 PM CDT
Astronomical Twilight 5:32 AM CDT 7:30 PM CDT
Moon 4:39 PM CDT (10/20) 4:40 AM CDT (10/20)
Length of Visible Light 12h 06m
Length of Day
11h 17m
Waxing Gibbous, 95% of the Moon is Illuminated
Oct 20
Waxing Gibbous
Oct 22
Full
Oct 30
Last Quarter
Nov 5
New
Nov 13
First Quarter

Hourly Weather History & Observations

Time (CDT) Temp. Heat Index Dew Point Humidity Pressure Visibility Wind Dir Wind Speed Gust Speed Precip Events Conditions
12:55 AM 67.5 °F - 62.4 °F 84% 29.96 in 10.0 mi WNW 4.6 mph - N/A   Clear
1:55 AM 60.8 °F - 58.1 °F 91% 29.95 in 10.0 mi Calm Calm - N/A   Clear
2:55 AM 57.4 °F - 55.6 °F 94% 29.94 in 10.0 mi Calm Calm - N/A   Clear
3:55 AM 57.6 °F - 56.3 °F 96% 29.95 in 10.0 mi NW 3.5 mph - N/A   Clear
4:55 AM 64.6 °F - 61.0 °F 88% 29.95 in 10.0 mi WNW 4.6 mph - N/A   Clear
5:55 AM 65.1 °F - 60.6 °F 85% 29.95 in 10.0 mi WNW 5.8 mph - N/A   Partly Cloudy
6:55 AM 64.6 °F - 59.5 °F 84% 29.95 in 10.0 mi NW 4.6 mph - N/A   Clear
6:57 AM 64.6 °F - 59.5 °F 84% 29.95 in 10.0 mi NW 4.6 mph - N/A   Clear
7:55 AM 66.9 °F - 59.9 °F 78% 29.97 in 10.0 mi NW 6.9 mph - N/A   Clear
8:55 AM 69.4 °F - 61.0 °F 74% 29.99 in 10.0 mi NNW 5.8 mph - N/A   Partly Cloudy
9:55 AM 75.6 °F - 61.0 °F 60% 30.00 in 10.0 mi NNW 9.2 mph - N/A   Clear
9:58 AM 75.2 °F - 60.8 °F 61% 30.00 in 10.0 mi NNW 9.2 mph - N/A   Clear
10:21 AM 75.2 °F - 60.8 °F 61% 29.99 in 10.0 mi North 10.4 mph - N/A Rain Light Rain
10:34 AM 77.0 °F - 60.8 °F 57% 29.99 in 10.0 mi NNW 10.4 mph - N/A   Clear
10:35 AM 77.0 °F - 60.8 °F 57% 29.99 in 10.0 mi NNW 11.5 mph - N/A Rain Light Rain
10:45 AM 77.0 °F - 60.8 °F 57% 29.99 in 10.0 mi NNW 13.8 mph - N/A   Clear
10:55 AM 77.0 °F - 60.6 °F 57% 29.99 in 10.0 mi NNW 13.8 mph - 0.00 in   Clear
10:56 AM 77.0 °F - 60.6 °F 57% 29.99 in 10.0 mi NNW 13.8 mph - N/A   Clear
11:55 AM 78.4 °F - 60.4 °F 54% 29.97 in 10.0 mi Variable 5.8 mph - N/A   Clear
11:57 AM 78.4 °F - 60.4 °F 54% 29.97 in 10.0 mi Variable 5.8 mph - N/A   Partly Cloudy
12:55 PM 81.7 °F 82.4 °F 61.3 °F 50% 29.94 in 10.0 mi North 5.8 mph - N/A   Partly Cloudy
1:20 PM 80.6 °F 81.5 °F 60.8 °F 51% 29.94 in 10.0 mi NW 6.9 mph - N/A   Mostly Cloudy
1:21 PM 80.6 °F 81.5 °F 60.8 °F 51% 29.94 in 10.0 mi Variable 5.8 mph - N/A   Mostly Cloudy
1:55 PM 83.1 °F 83.3 °F 60.1 °F 46% 29.92 in 10.0 mi WNW 9.2 mph - N/A   Mostly Cloudy
1:57 PM 82.4 °F 82.9 °F 60.8 °F 48% 29.92 in 10.0 mi NW 10.4 mph - N/A   Mostly Cloudy
2:55 PM 81.9 °F 81.9 °F 58.6 °F 45% 29.91 in 10.0 mi NNW 5.8 mph - N/A   Mostly Cloudy
2:58 PM 82.4 °F 82.5 °F 59.0 °F 45% 29.91 in 10.0 mi Variable 4.6 mph - N/A   Scattered Clouds
3:55 PM 78.3 °F - 65.1 °F 64% 29.91 in 10.0 mi WSW 12.7 mph - N/A   Scattered Clouds
3:57 PM 78.8 °F - 64.4 °F 61% 29.91 in 10.0 mi WSW 9.2 mph - N/A   Scattered Clouds
4:55 PM 76.8 °F - 65.8 °F 69% 29.91 in 10.0 mi WSW 12.7 mph - N/A   Partly Cloudy
4:57 PM 77.0 °F - 66.2 °F 69% 29.91 in 10.0 mi WSW 11.5 mph - N/A   Partly Cloudy
5:55 PM 75.7 °F - 66.7 °F 74% 29.92 in 10.0 mi West 8.1 mph - N/A   Clear
6:55 PM 74.3 °F - 65.3 °F 73% 29.93 in 10.0 mi WNW 4.6 mph - N/A   Clear
7:55 PM 66.6 °F - 63.9 °F 91% 29.95 in 10.0 mi North 3.5 mph - N/A   Clear
8:55 PM 65.3 °F - 62.2 °F 90% 29.97 in 10.0 mi NNW 3.5 mph - N/A   Clear
9:55 PM 62.4 °F - 60.6 °F 94% 29.99 in 10.0 mi NNW 4.6 mph - N/A   Clear
10:55 PM 61.3 °F - 58.1 °F 89% 30.00 in 10.0 mi North 5.8 mph - N/A   Clear
11:55 PM 59.7 °F - 57.4 °F 92% 29.99 in 10.0 mi NNW 4.6 mph - N/A   Clear